Time,TemperatureF,DewpointF,PressureIn,WindDirection,WindDirectionDegrees,WindSpeedMPH,WindSpeedGustMPH,Humidity,HourlyPrecipIn,Conditions,Clouds,dailyrainin,SolarRadiationWatts/m^2,SoftwareType,DateUTC
2013-03-23 00:03:00,29.0,17.0,-100.00,NNE,21,1.0,5.0,61,0.00,,,0.00,0.000000,,2013-03-23 04:03:00,
2013-03-23 00:33:00,28.0,18.0,-100.00,WNW,302,1.0,2.0,66,0.00,,,0.00,0.000000,,2013-03-23 04:33:00,
2013-03-23 00:43:00,28.0,18.0,-100.00,WNW,302,1.0,2.0,66,0.00,,,0.00,0.000000,,2013-03-23 04:43:00,
2013-03-23 00:53:00,28.0,18.0,-100.00,WNW,302,1.0,2.0,66,0.00,,,0.00,0.000000,,2013-03-23 04:53:00,
2013-03-23 01:02:00,28.0,18.0,-100.00,WNW,302,1.0,2.0,66,0.00,,,0.00,0.000000,,2013-03-23 05:02:00,
2013-03-23 01:12:00,28.0,18.0,-100.00,WNW,302,1.0,2.0,66,0.00,,,0.00,0.000000,,2013-03-23 05:12:00,
2013-03-23 01:42:00,28.0,20.0,-100.00,WSW,246,2.0,4.0,70,0.00,,,0.00,0.000000,,2013-03-23 05:42:00,
2013-03-23 01:53:00,28.0,20.0,-100.00,WSW,246,2.0,4.0,70,0.00,,,0.00,0.000000,,2013-03-23 05:53:00,
2013-03-23 02:02:00,28.0,20.0,-100.00,WSW,246,2.0,4.0,70,0.00,,,0.00,0.000000,,2013-03-23 06:02:00,
2013-03-23 02:12:00,28.0,20.0,-100.00,WSW,246,2.0,4.0,70,0.00,,,0.00,0.000000,,2013-03-23 06:12:00,
2013-03-23 02:42:00,29.0,19.0,-100.00,WNW,286,3.0,5.0,65,0.00,,,0.00,0.000000,,2013-03-23 06:42:00,
2013-03-23 02:52:00,29.0,19.0,-100.00,WNW,286,3.0,5.0,65,0.00,,,0.00,0.000000,,2013-03-23 06:52:00,
2013-03-23 03:03:00,29.0,19.0,-100.00,WNW,286,3.0,5.0,65,0.00,,,0.00,0.000000,,2013-03-23 07:03:00,
2013-03-23 03:12:00,29.0,19.0,-100.00,WNW,286,3.0,5.0,65,0.00,,,0.00,0.000000,,2013-03-23 07:12:00,
2013-03-23 03:13:00,28.0,19.0,-100.00,West,268,2.0,5.0,68,0.00,,,0.00,0.000000,,2013-03-23 07:13:00,
2013-03-23 03:33:00,28.0,19.0,-100.00,West,268,2.0,5.0,68,0.00,,,0.00,0.000000,,2013-03-23 07:33:00,
2013-03-23 03:42:00,28.0,19.0,-100.00,West,268,2.0,5.0,68,0.00,,,0.00,0.000000,,2013-03-23 07:42:00,
2013-03-23 03:52:00,28.0,19.0,-100.00,West,268,2.0,5.0,68,0.00,,,0.00,0.000000,,2013-03-23 07:52:00,
2013-03-23 04:03:00,28.0,19.0,-100.00,West,268,2.0,5.0,68,0.00,,,0.00,0.000000,,2013-03-23 08:03:00,
2013-03-23 04:32:00,26.0,18.0,-100.00,SSW,209,1.0,3.0,72,0.00,,,0.00,0.000000,,2013-03-23 08:32:00,
2013-03-23 04:42:00,26.0,18.0,-100.00,SSW,209,1.0,3.0,72,0.00,,,0.00,0.000000,,2013-03-23 08:42:00,
2013-03-23 04:53:00,26.0,18.0,-100.00,SSW,209,1.0,3.0,72,0.00,,,0.00,0.000000,,2013-03-23 08:53:00,
2013-03-23 05:02:00,26.0,18.0,-100.00,SSW,209,1.0,3.0,72,0.00,,,0.00,0.000000,,2013-03-23 09:02:00,
2013-03-23 05:12:00,26.0,18.0,-100.00,SSW,209,1.0,3.0,72,0.00,,,0.00,0.000000,,2013-03-23 09:12:00,
2013-03-23 05:13:00,25.0,18.0,-100.00,SE,142,1.0,2.0,75,0.00,,,0.00,0.000000,,2013-03-23 09:13:00,
2013-03-23 05:33:00,25.0,18.0,-100.00,SE,142,1.0,2.0,75,0.00,,,0.00,0.000000,,2013-03-23 09:33:00,
2013-03-23 05:43:00,25.0,18.0,-100.00,SE,142,1.0,2.0,75,0.00,,,0.00,0.000000,,2013-03-23 09:43:00,
2013-03-23 05:53:00,25.0,18.0,-100.00,SE,142,1.0,2.0,75,0.00,,,0.00,0.000000,,2013-03-23 09:53:00,
2013-03-23 06:03:00,25.0,18.0,-100.00,SE,142,1.0,2.0,75,0.00,,,0.00,0.000000,,2013-03-23 10:03:00,
2013-03-23 06:34:00,25.0,18.0,-100.00,South,177,1.0,3.0,75,0.00,,,0.00,0.000000,,2013-03-23 10:34:00,
2013-03-23 06:43:00,25.0,18.0,-100.00,South,177,1.0,3.0,75,0.00,,,0.00,0.000000,,2013-03-23 10:43:00,
2013-03-23 06:53:00,25.0,18.0,-100.00,South,177,1.0,3.0,75,0.00,,,0.00,0.000000,,2013-03-23 10:53:00,
2013-03-23 07:03:00,25.0,18.0,-100.00,South,177,1.0,3.0,75,0.00,,,0.00,0.000000,,2013-03-23 11:03:00,
2013-03-23 07:12:00,25.0,18.0,-100.00,South,177,1.0,3.0,75,0.00,,,0.00,0.000000,,2013-03-23 11:12:00,
2013-03-23 07:13:00,23.0,18.0,-100.00,WNW,283,1.0,2.0,81,0.00,,,0.00,1.000000,,2013-03-23 11:13:00,
2013-03-23 07:32:00,23.0,18.0,-100.00,WNW,283,1.0,2.0,81,0.00,,,0.00,1.000000,,2013-03-23 11:32:00,
2013-03-23 07:42:00,23.0,18.0,-100.00,WNW,283,1.0,2.0,81,0.00,,,0.00,1.000000,,2013-03-23 11:42:00,
2013-03-23 07:52:00,23.0,18.0,-100.00,WNW,283,1.0,2.0,81,0.00,,,0.00,1.000000,,2013-03-23 11:52:00,
2013-03-23 08:02:00,23.0,18.0,-100.00,WNW,283,1.0,2.0,81,0.00,,,0.00,1.000000,,2013-03-23 12:02:00,
2013-03-23 08:43:00,27.0,22.0,-100.00,SW,233,1.0,2.0,80,0.00,,,0.00,46.000000,,2013-03-23 12:43:00,
2013-03-23 08:53:00,27.0,22.0,-100.00,SW,233,1.0,2.0,80,0.00,,,0.00,46.000000,,2013-03-23 12:53:00,
2013-03-23 09:03:00,27.0,22.0,-100.00,SW,233,1.0,2.0,80,0.00,,,0.00,46.000000,,2013-03-23 13:03:00,
2013-03-23 09:12:00,27.0,22.0,-100.00,SW,233,1.0,2.0,80,0.00,,,0.00,46.000000,,2013-03-23 13:12:00,
2013-03-23 09:33:00,35.0,23.0,-100.00,NW,323,2.0,4.0,62,0.00,,,0.00,223.000000,,2013-03-23 13:33:00,
2013-03-23 09:43:00,35.0,23.0,-100.00,NW,323,2.0,4.0,62,0.00,,,0.00,223.000000,,2013-03-23 13:43:00,
2013-03-23 09:53:00,35.0,23.0,-100.00,NW,323,2.0,4.0,62,0.00,,,0.00,223.000000,,2013-03-23 13:53:00,
2013-03-23 10:03:00,35.0,23.0,-100.00,NW,323,2.0,4.0,62,0.00,,,0.00,223.000000,,2013-03-23 14:03:00,
2013-03-23 10:12:00,35.0,23.0,-100.00,NW,323,2.0,4.0,62,0.00,,,0.00,223.000000,,2013-03-23 14:12:00,
2013-03-23 10:33:00,43.0,26.0,-100.00,NW,308,3.0,6.0,50,0.00,,,0.00,438.000000,,2013-03-23 14:33:00,
2013-03-23 10:43:00,43.0,26.0,-100.00,NW,308,3.0,6.0,50,0.00,,,0.00,438.000000,,2013-03-23 14:43:00,
2013-03-23 10:53:00,43.0,26.0,-100.00,NW,308,3.0,6.0,50,0.00,,,0.00,438.000000,,2013-03-23 14:53:00,
2013-03-23 11:04:00,43.0,26.0,-100.00,NW,308,3.0,6.0,50,0.00,,,0.00,438.000000,,2013-03-23 15:04:00,
2013-03-23 11:12:00,43.0,26.0,-100.00,NW,308,3.0,6.0,50,0.00,,,0.00,438.000000,,2013-03-23 15:12:00,
2013-03-23 11:13:00,47.0,24.0,-100.00,NW,317,5.0,12.0,40,0.00,,,0.00,611.000000,,2013-03-23 15:13:00,
2013-03-23 11:34:00,47.0,24.0,-100.00,NW,317,5.0,12.0,40,0.00,,,0.00,611.000000,,2013-03-23 15:34:00,
2013-03-23 11:44:00,47.0,24.0,-100.00,NW,317,5.0,12.0,40,0.00,,,0.00,611.000000,,2013-03-23 15:44:00,
2013-03-23 11:53:00,47.0,24.0,-100.00,NW,317,5.0,12.0,40,0.00,,,0.00,611.000000,,2013-03-23 15:53:00,
2013-03-23 12:03:00,47.0,24.0,-100.00,NW,317,5.0,12.0,40,0.00,,,0.00,611.000000,,2013-03-23 16:03:00,
2013-03-23 12:33:00,48.0,24.0,-100.00,WNW,293,4.0,12.0,38,0.00,,,0.00,660.000000,,2013-03-23 16:33:00,
2013-03-23 12:43:00,48.0,24.0,-100.00,WNW,293,4.0,12.0,38,0.00,,,0.00,660.000000,,2013-03-23 16:43:00,
2013-03-23 12:54:00,48.0,24.0,-100.00,WNW,293,4.0,12.0,38,0.00,,,0.00,660.000000,,2013-03-23 16:54:00,
2013-03-23 13:03:00,48.0,24.0,-100.00,WNW,293,4.0,12.0,38,0.00,,,0.00,660.000000,,2013-03-23 17:03:00,
2013-03-23 13:12:00,48.0,24.0,-100.00,WNW,293,4.0,12.0,38,0.00,,,0.00,660.000000,,2013-03-23 17:12:00,
2013-03-23 13:33:00,51.0,24.0,-100.00,WNW,302,5.0,14.0,35,0.00,,,0.00,891.000000,,2013-03-23 17:33:00,
2013-03-23 13:43:00,51.0,24.0,-100.00,WNW,302,5.0,14.0,35,0.00,,,0.00,891.000000,,2013-03-23 17:43:00,
2013-03-23 13:53:00,51.0,24.0,-100.00,WNW,302,5.0,14.0,35,0.00,,,0.00,891.000000,,2013-03-23 17:53:00,
2013-03-23 14:03:00,51.0,24.0,-100.00,WNW,302,5.0,14.0,35,0.00,,,0.00,891.000000,,2013-03-23 18:03:00,
2013-03-23 14:12:00,51.0,24.0,-100.00,WNW,302,5.0,14.0,35,0.00,,,0.00,891.000000,,2013-03-23 18:12:00,
2013-03-23 14:13:00,52.0,23.0,-100.00,NW,307,5.0,10.0,32,0.00,,,0.00,897.000000,,2013-03-23 18:13:00,
2013-03-23 14:43:00,52.0,23.0,-100.00,NW,307,5.0,10.0,32,0.00,,,0.00,897.000000,,2013-03-23 18:43:00,
2013-03-23 14:53:00,52.0,23.0,-100.00,NW,307,5.0,10.0,32,0.00,,,0.00,897.000000,,2013-03-23 18:53:00,
2013-03-23 15:03:00,52.0,23.0,-100.00,NW,307,5.0,10.0,32,0.00,,,0.00,897.000000,,2013-03-23 19:03:00,
2013-03-23 15:13:00,54.0,24.0,-100.00,WNW,297,4.0,10.0,31,0.00,,,0.00,761.000000,,2013-03-23 19:13:00,
2013-03-23 15:43:00,54.0,24.0,-100.00,WNW,297,4.0,10.0,31,0.00,,,0.00,761.000000,,2013-03-23 19:43:00,
2013-03-23 15:53:00,54.0,24.0,-100.00,WNW,297,4.0,10.0,31,0.00,,,0.00,761.000000,,2013-03-23 19:53:00,
2013-03-23 16:03:00,54.0,24.0,-100.00,WNW,297,4.0,10.0,31,0.00,,,0.00,761.000000,,2013-03-23 20:03:00,
2013-03-23 16:43:00,54.0,22.0,-100.00,NW,313,4.0,14.0,28,0.00,,,0.00,667.000000,,2013-03-23 20:43:00,
2013-03-23 16:53:00,54.0,22.0,-100.00,NW,313,4.0,14.0,28,0.00,,,0.00,667.000000,,2013-03-23 20:53:00,
2013-03-23 17:03:00,54.0,22.0,-100.00,NW,313,4.0,14.0,28,0.00,,,0.00,667.000000,,2013-03-23 21:03:00,
2013-03-23 17:12:00,54.0,22.0,-100.00,NW,313,4.0,14.0,28,0.00,,,0.00,667.000000,,2013-03-23 21:12:00,
2013-03-23 17:13:00,52.0,21.0,-100.00,NW,314,6.0,14.0,29,0.00,,,0.00,462.000000,,2013-03-23 21:13:00,
2013-03-23 17:33:00,52.0,21.0,-100.00,NW,314,6.0,14.0,29,0.00,,,0.00,462.000000,,2013-03-23 21:33:00,
2013-03-23 17:43:00,52.0,21.0,-100.00,NW,314,6.0,14.0,29,0.00,,,0.00,462.000000,,2013-03-23 21:43:00,
2013-03-23 17:54:00,52.0,21.0,-100.00,NW,314,6.0,14.0,29,0.00,,,0.00,462.000000,,2013-03-23 21:54:00,
2013-03-23 18:03:00,52.0,21.0,-100.00,NW,314,6.0,14.0,29,0.00,,,0.00,462.000000,,2013-03-23 22:03:00,
2013-03-23 18:13:00,49.0,20.0,-100.00,NW,316,6.0,14.0,31,0.00,,,0.00,122.000000,,2013-03-23 22:13:00,
2013-03-23 18:33:00,49.0,20.0,-100.00,NW,316,6.0,14.0,31,0.00,,,0.00,122.000000,,2013-03-23 22:33:00,
2013-03-23 18:43:00,49.0,20.0,-100.00,NW,316,6.0,14.0,31,0.00,,,0.00,122.000000,,2013-03-23 22:43:00,
2013-03-23 18:53:00,49.0,20.0,-100.00,NW,316,6.0,14.0,31,0.00,,,0.00,122.000000,,2013-03-23 22:53:00,
2013-03-23 19:03:00,49.0,20.0,-100.00,NW,316,6.0,14.0,31,0.00,,,0.00,122.000000,,2013-03-23 23:03:00,
2013-03-23 19:13:00,45.0,19.0,-100.00,NW,313,4.0,14.0,35,0.00,,,0.00,27.000000,,2013-03-23 23:13:00,
2013-03-23 19:33:00,45.0,19.0,-100.00,NW,313,4.0,14.0,35,0.00,,,0.00,27.000000,,2013-03-23 23:33:00,
2013-03-23 19:43:00,45.0,19.0,-100.00,NW,313,4.0,14.0,35,0.00,,,0.00,27.000000,,2013-03-23 23:43:00,
2013-03-23 19:53:00,45.0,19.0,-100.00,NW,313,4.0,14.0,35,0.00,,,0.00,27.000000,,2013-03-23 23:53:00,
2013-03-23 20:02:00,45.0,19.0,-100.00,NW,313,4.0,14.0,35,0.00,,,0.00,27.000000,,2013-03-24 00:02:00,
2013-03-23 20:33:00,41.0,20.0,-100.00,NW,319,3.0,9.0,42,0.00,,,-99.99,2.000000,,2013-03-24 00:33:00,
2013-03-23 20:42:00,41.0,20.0,-100.00,NW,319,3.0,9.0,42,0.00,,,-99.99,2.000000,,2013-03-24 00:42:00,
2013-03-23 20:53:00,41.0,20.0,-100.00,NW,319,3.0,9.0,42,0.00,,,-99.99,2.000000,,2013-03-24 00:53:00,
2013-03-23 21:02:00,41.0,20.0,-100.00,NW,319,3.0,9.0,42,0.00,,,-99.99,2.000000,,2013-03-24 01:02:00,
2013-03-23 21:12:00,41.0,20.0,-100.00,NW,319,3.0,9.0,42,0.00,,,-99.99,2.000000,,2013-03-24 01:12:00,
2013-03-23 21:33:00,39.0,20.0,-100.00,NNW,336,4.0,9.0,46,0.00,,,0.00,0.000000,,2013-03-24 01:33:00,
2013-03-23 21:43:00,39.0,20.0,-100.00,NNW,336,4.0,9.0,46,0.00,,,0.00,0.000000,,2013-03-24 01:43:00,
2013-03-23 21:53:00,39.0,20.0,-100.00,NNW,336,4.0,9.0,46,0.00,,,0.00,0.000000,,2013-03-24 01:53:00,
2013-03-23 22:03:00,39.0,20.0,-100.00,NNW,336,4.0,9.0,46,0.00,,,0.00,0.000000,,2013-03-24 02:03:00,
2013-03-23 22:12:00,39.0,20.0,-100.00,NNW,336,4.0,9.0,46,0.00,,,0.00,0.000000,,2013-03-24 02:12:00,
2013-03-23 22:13:00,38.0,21.0,-100.00,North,350,4.0,9.0,49,0.00,,,0.00,0.000000,,2013-03-24 02:13:00,
2013-03-23 22:43:00,38.0,21.0,-100.00,North,350,4.0,9.0,49,0.00,,,0.00,0.000000,,2013-03-24 02:43:00,
2013-03-23 22:52:00,38.0,21.0,-100.00,North,350,4.0,9.0,49,0.00,,,0.00,0.000000,,2013-03-24 02:52:00,
2013-03-23 23:03:00,38.0,21.0,-100.00,North,350,4.0,9.0,49,0.00,,,0.00,0.000000,,2013-03-24 03:03:00,
2013-03-23 23:13:00,35.0,20.0,-100.00,NNW,336,4.0,8.0,55,0.00,,,0.00,0.000000,,2013-03-24 03:13:00,
2013-03-23 23:33:00,35.0,20.0,-100.00,NNW,336,4.0,8.0,55,0.00,,,0.00,0.000000,,2013-03-24 03:33:00,
2013-03-23 23:43:00,35.0,20.0,-100.00,NNW,336,4.0,8.0,55,0.00,,,0.00,0.000000,,2013-03-24 03:43:00,
2013-03-23 23:53:00,35.0,20.0,-100.00,NNW,336,4.0,8.0,55,0.00,,,0.00,0.000000,,2013-03-24 03:53:00,